FENGYUN 1C DEB, 37600

Orbit data source: Space-Track

FENGYUN 1C DEB, 37600 is space debris in SSO originally from a launch on Mon, 10 May 1999 UTC launched from the Taiyaun Space Center, China (TSC). Fengyun 1C debris stems from the Chinese weather satellite Fengyun-1C, which was intentionally destroyed by a Chinese anti-satellite missile in 2007. This event dramatically increased the amount of space debris, with thousands of trackable fragments posing hazards to satellites and human spaceflight. The Fengyun 1C debris cloud has become a focal point in discussions about space sustainability and the need for international regulations to prevent the creation of new debris.

Loading next visibility...
Identifier
37600, 1999-025EKU
Orbit
SSO
Country
Flag of CNCN / PRC
Related business
Manufacturer
Unknown
Mission
Spacecraft
Bus & Motor
Unknown
Mass
Unknown
Launch date (UTC)
1999-05-10 (27 years ago)
Launch vehicle
Unknown
Launch site
Taiyaun Space Center, China (TSC)
Object type
Payload
Rocket body
Debris
Shape & HBR
Unknown shape, 0.1 m
Radar Cross Section
Small (<0.1 m²)

Expand to show TLE details & history
Last TLE update: 3 days ago

TLE from 3 days ago
0 FENGYUN 1C DEB
1 37600U 99025EKU 26205.67121974  .00007277  00000-0  39194-2 0  9994
2 37600  98.9294 356.9050 0355712 163.7617 197.5295 13.85337783915855
Epoch: 2026-07-24T16:06Z
TLE epoch observation values (Epoch: 2026-07-24T16:06:33.385Z)
Latitude
0.00005°
Longitude
172.87138°
Altitude
1,197.126 km
Speed
7.131 km/s
True Right ascension
23h 47m 37s
True Declination
0° 00' 00"
Sunlit
Object was in full shadow at epoch
Visualization orbit readout
Latitude
Unknown
Longitude
Unknown
Altitude
Unknown
Speed
Unknown
Apparent Right ascension
Unknown
Apparent Declination
Unknown
Sunlit
N/A
Visualization observer readout
Local Sidereal Time
01:36:23
Azimuth
Unknown
Elevation
Unknown
Doppler factor
Unknown
Orbital elements
Apogee altitude
1,202.62 km
Perigee altitude
681.831 km
Semi-major axis
7,320.362 km
Eccentricity
0.03557
Inclination
98.9294°
RAAN
356.905°
Arg. of periapsis
163.7617°
True anomaly
196.35187°
Mean anomaly
197.5295°
Eccentric anomaly
196.93581°
Mean motion
3.46533 °/min
Orbital period
103.89 mins
BSTAR
0.0039194
Loading maneuver chart data...
Computing Atmospheric mass density...

Documentation

Showing up to 5 results
|